Date String (YYYY-MM-DD hh:mm:ss) UTC,Instrument flags,Ambient pressure (hPa),Sample flow (lpm),Bypass flow (lpm),Sample temperature (°C),Ambient temperature (°C),ASC tube jacket temperature (°C),LED temperature (°C),Box temperature (°C),Sample RH (%),Span deviation,Mass concentration (μg/m³),Mass concentration (μg/m³),Mass concentration (μg/m³)
DateTimeUTC,F1_M11,P_M11,Q1_M11,Q2_M11,T1_M11,T2_M11,T3_M11,T4_M11,T5_M11,U1_M11,ZSPAN_M11,X2_M11,X0_M11,X1_M11
2022-07-11 07:00:00,,0829.0,5.02,0.00,29.0,27.3,00.0,37.8,30.8,22.6,0000.0,0004.49,0007.99,0004.13
2022-07-11 07:01:00,,0829.0,5.00,0.00,29.0,27.4,00.0,37.8,30.9,22.5,0000.0,0004.48,0007.73,0004.12
2022-07-11 07:02:00,,0828.9,5.00,0.00,29.0,27.6,00.0,37.8,31.0,22.2,0000.0,0004.46,0007.69,0004.11
2022-07-11 07:03:00,,0828.9,5.00,0.00,29.1,27.7,00.0,37.8,31.0,22.3,0000.0,0004.47,0007.79,0004.12
2022-07-11 07:04:00,,0828.9,4.99,0.00,29.1,27.9,00.0,37.8,31.1,22.1,0000.0,0004.48,0007.81,0004.15
2022-07-11 07:05:00,,0828.9,5.01,0.00,29.1,28.0,00.0,37.8,31.1,21.9,0000.0,0004.47,0007.75,0004.17
2022-07-11 07:06:00,,0828.9,4.99,0.00,29.2,28.1,00.0,37.9,31.2,21.8,0000.0,0004.51,0007.80,0004.20
2022-07-11 07:07:00,,0828.8,5.00,0.00,29.2,27.6,00.0,37.8,31.1,21.8,0000.0,0004.52,0007.19,0004.21
2022-07-11 07:08:00,,0828.9,4.99,0.00,29.1,27.1,00.0,37.8,31.0,21.7,0000.0,0004.51,0007.14,0004.21
2022-07-11 07:09:00,,0828.8,5.01,0.00,29.1,27.0,00.0,37.8,31.0,21.7,0000.0,0004.50,0007.38,0004.22
2022-07-11 07:10:00,,0828.9,4.99,0.00,29.1,27.1,00.0,37.8,30.9,21.8,0000.0,0004.50,0007.34,0004.23
2022-07-11 07:11:00,,0828.9,5.01,0.00,29.1,27.2,00.0,37.8,30.9,21.6,0000.0,0004.50,0007.31,0004.24
2022-07-11 07:12:00,,0828.9,5.00,0.00,29.1,27.4,00.0,37.8,30.9,21.5,0000.0,0004.51,0007.38,0004.25
2022-07-11 07:13:00,,0828.8,5.00,0.00,29.1,27.5,00.0,37.8,30.9,21.5,0000.0,0004.51,0007.30,0004.25
2022-07-11 07:14:00,,0829.0,5.00,0.00,29.1,27.7,00.0,37.8,31.0,21.4,0000.0,0004.51,0007.17,0004.26
2022-07-11 07:15:00,,0829.2,5.00,0.00,29.1,27.8,00.0,37.9,31.0,21.0,0000.0,0004.51,0007.10,0004.26
2022-07-11 07:16:00,,0828.8,5.00,0.00,29.2,27.9,00.0,37.9,31.1,21.0,0000.0,0004.52,0007.08,0004.28
2022-07-11 07:17:00,,0828.7,4.99,0.00,29.2,28.0,00.0,37.9,31.1,20.9,0000.0,0004.52,0007.09,0004.29
2022-07-11 07:18:00,,0828.7,5.01,0.00,29.2,28.0,00.0,37.9,31.2,20.9,0000.0,0004.51,0007.17,0004.28
2022-07-11 07:19:00,,0829.1,5.00,0.00,29.2,27.4,00.0,37.8,31.1,21.0,0000.0,0004.51,0007.05,0004.29
2022-07-11 07:20:00,,0829.1,5.00,0.00,29.2,27.0,00.0,37.8,31.0,21.0,0000.0,0004.51,0006.64,0004.29
2022-07-11 07:21:00,,0828.8,5.00,0.00,29.1,26.9,00.0,37.8,30.9,20.9,0000.0,0004.52,0006.70,0004.29
2022-07-11 07:22:00,,0828.7,5.01,0.00,29.1,27.0,00.0,37.8,30.9,20.8,0000.0,0004.54,0006.86,0004.28
2022-07-11 07:23:00,,0828.8,4.99,0.00,29.1,27.2,00.0,37.8,30.9,20.8,0000.0,0004.53,0006.91,0004.27
2022-07-11 07:24:00,,0829.0,5.02,0.00,29.1,27.3,00.0,37.8,30.9,20.7,0000.0,0004.53,0007.38,0004.26
2022-07-11 07:25:00,,0828.6,5.00,0.00,29.1,27.5,00.0,37.8,30.9,20.7,0000.0,0004.50,0007.29,0004.25
2022-07-11 07:26:00,,0828.5,5.00,0.00,29.1,27.6,00.0,37.9,31.0,20.6,0000.0,0004.48,0007.24,0004.23
2022-07-11 07:27:00,,0828.5,5.01,0.00,29.1,27.8,00.0,37.9,31.0,20.6,0000.0,0004.48,0007.30,0004.21
2022-07-11 07:28:00,,0828.5,5.00,0.00,29.2,27.9,00.0,37.9,31.1,20.6,0000.0,0004.48,0007.31,0004.20
2022-07-11 07:29:00,,0828.4,4.98,0.00,29.2,28.0,00.0,37.9,31.1,20.5,0000.0,0004.48,0007.34,0004.19
2022-07-11 07:30:00,,0828.5,5.01,0.00,29.2,28.1,00.0,38.0,31.2,20.4,0000.0,0004.47,0007.41,0004.18
2022-07-11 07:31:00,,0828.4,5.00,0.00,29.3,28.0,00.0,37.9,31.2,20.3,0000.0,0004.45,0007.33,0004.17
2022-07-11 07:32:00,,0828.5,4.99,0.00,29.2,27.2,00.0,37.9,31.1,20.3,0000.0,0004.42,0007.20,0004.17
2022-07-11 07:33:00,,0828.5,4.99,0.00,29.2,27.0,00.0,37.8,31.0,20.2,0000.0,0004.42,0007.08,0004.17
2022-07-11 07:34:00,,0828.5,5.01,0.00,29.1,27.0,00.0,37.8,30.9,20.1,0000.0,0004.42,0006.90,0004.17
2022-07-11 07:35:00,,0828.5,5.00,0.00,29.1,27.1,00.0,37.8,30.9,20.1,0000.0,0004.42,0006.45,0004.17
2022-07-11 07:36:00,,0828.5,5.00,0.00,29.1,27.2,00.0,37.9,30.9,20.0,0000.0,0004.43,0006.51,0004.18
2022-07-11 07:37:00,,0828.5,5.01,0.00,29.1,27.4,00.0,37.9,30.9,20.1,0000.0,0004.46,0006.59,0004.19
2022-07-11 07:38:00,,0828.5,5.01,0.00,29.1,27.6,00.0,37.9,31.0,20.1,0000.0,0004.48,0006.67,0004.20
2022-07-11 07:39:00,,0828.5,5.01,0.00,29.1,27.7,00.0,37.9,31.1,20.3,0000.0,0004.51,0006.78,0004.22
2022-07-11 07:40:00,,0828.5,4.99,0.00,29.2,27.9,00.0,37.9,31.1,20.3,0000.0,0004.50,0006.64,0004.23
2022-07-11 07:41:00,,0828.5,5.01,0.00,29.2,28.0,00.0,37.9,31.1,20.1,0000.0,0004.52,0006.59,0004.24
2022-07-11 07:42:00,,0828.5,4.99,0.00,29.2,28.1,00.0,38.0,31.2,20.0,0000.0,0004.57,0006.85,0004.26
2022-07-11 07:43:00,,0828.4,5.01,0.00,29.3,28.2,00.0,38.0,31.2,19.8,0000.0,0004.58,0006.89,0004.26
2022-07-11 07:44:00,,0828.5,5.01,0.00,29.3,28.2,00.0,38.0,31.3,19.7,0000.0,0004.60,0006.97,0004.28
2022-07-11 07:45:00,,0828.5,5.01,0.00,29.3,27.6,00.0,37.9,31.2,20.0,0000.0,0004.61,0007.02,0004.30
2022-07-11 07:46:00,,0828.5,4.99,0.00,29.3,27.1,00.0,37.9,31.1,20.5,0000.0,0004.60,0006.96,0004.31
2022-07-11 07:47:00,,0828.5,5.01,0.00,29.2,27.1,00.0,37.9,31.0,20.7,0000.0,0004.62,0006.96,0004.33
2022-07-11 07:48:00,,0828.5,5.01,0.00,29.2,27.1,00.0,37.9,31.0,20.6,0000.0,0004.62,0006.93,0004.34
2022-07-11 07:49:00,,0828.5,4.99,0.00,29.2,27.3,00.0,37.9,31.0,20.5,0000.0,0004.63,0006.93,0004.37
2022-07-11 07:50:00,,0828.7,5.01,0.00,29.2,27.5,00.0,37.9,31.0,20.5,0000.0,0004.63,0006.94,0004.37
2022-07-11 07:51:00,,0828.8,5.00,0.00,29.2,27.6,00.0,37.9,31.0,20.5,0000.0,0004.65,0007.07,0004.39
2022-07-11 07:52:00,,0828.6,5.00,0.00,29.2,27.8,00.0,38.0,31.1,20.6,0000.0,0004.68,0007.15,0004.40
2022-07-11 07:53:00,,0828.6,5.00,0.00,29.2,27.9,00.0,38.0,31.1,20.7,0000.0,0004.68,0007.07,0004.40
2022-07-11 07:54:00,,0828.5,5.01,0.00,29.3,28.0,00.0,38.0,31.2,20.6,0000.0,0004.69,0007.09,0004.42
2022-07-11 07:55:00,,0828.5,5.01,0.00,29.3,28.1,00.0,38.0,31.2,20.6,0000.0,0004.66,0006.95,0004.41
2022-07-11 07:56:00,,0828.5,5.00,0.00,29.3,28.2,00.0,38.0,31.3,20.6,0000.0,0004.68,0007.28,0004.41
2022-07-11 07:57:00,,0828.5,5.00,0.00,29.4,28.2,00.0,38.0,31.3,20.6,0000.0,0004.71,0007.56,0004.42
2022-07-11 07:58:00,,0828.5,4.99,0.00,29.3,27.5,00.0,38.0,31.2,20.5,0000.0,0004.72,0007.59,0004.42
2022-07-11 07:59:00,,0828.5,5.00,0.00,29.3,27.1,00.0,38.0,31.1,20.5,0000.0,0004.75,0007.64,0004.42
